Probability
1 0 0 0 0 0 0 0 0 0 0 0 0 0 0 0 0 0 0 0 0 0 0 0 0 0 0 0 0 0 0 0 0 0 0 0 0 0 0 0 0 0 0 0
1 0 0 0 0 0 0 0 0 0 0 0 0 0 0 0 0 0 0 0 0 0 0 0 0 0 0 0 0 0 0 0 0 0 0 0 0 0 0 0 0 0 0 0
1 0 0 0 0 0 0 0 0 0 0 0 0 0 0 0 0 0 0 0 0 0 0 0 0 0 0 0 0 0 0 0 0 0 0 0 0 0 0 0 0 0 0 0
0 0 0 0 0 0 0 0 0 0 0 0 0 0 0 0 0 0 0 0 0 0 0 0 0 0 0 0 0 0 0 0 0 0 0 0 0 0 0 0 0 0 0 0
0 0 0 0 0 0 0 0 0 0 0 0 0 0 0 0 0 0 0 0 0 0 0 0 0 0 0 0 0 0 0 0 0 0 0 0 0 0 0 0 0 0 0 0
0 0 0 0 0 0 0 0 0 0 0 0 0 0 0 0 0 0 0 0 0 0 0 0 0 0 0 0 0 0 0 0 0 0 0 0 0 0 0 0 0 0 0 0
0 0 0 0 0 0 0 0 0 0 0 0 0 0 0 0 0 0 0 0 0 0 0 0 0 0 0 0 0 0 0 0 0 0 0 0 0 0 0 0 0 0 0 0
0 0 0 0 0 0 0 0 0 0 0 0 0 0 0 0 0 0 0 0 0 0 0 0 0 0 0 0 0 0 0 0 0 0 0 0 0 0 0 0 0 0 0 0
0 0 0 0 0 0 0 0 0 0 0 0 0 0 0 0 0 0 0 0 0 0 0 0 0 0 0 0 0 0 0 0 0 0 0 0 0 0 0 0 0 0 0 0
0 0 0 0 0 0 0 0 0 0 0 0 0 0 0 0 0 0 0 0 0 0 0 0 0 0 0 0 0 0 0 0 0 0 0 0 0 0 0 0 0 0 0 0
0 0 0 0 0 0 0 0 0 0 0 0 0 0 0 0 0 0 0 0 0 0 0 0 0 0 0 0 0 0 0 0 0 0 0 0 0 0 0 0 0 0 0 0
0 0 0 0 0 0 0 0 0 0 0 0 0 0 0 0 0 0 0 0 0 0 0 0 0 0 0 0 0 0 0 0 0 0 0 0 0 0 0 0 0 0 0 0
0 0 0 0 0 0 0 0 0 0 0 0 0 0 0 0 0 0 0 0 0 0 0 0 0 0 0 0 0 0 0 0 0 0 0 0 0 0 0 0 0 0 0 0
1 0 0 0 0 0 0 0 0 0 0 0 0 0 0 0 0 0 0 0 0 0 0 0 0 0 0 0 0 0 0 0 0 0 0 0 0 0 0 0 0 0 0 0
1 0 0 0 0 0 0 0 0 0 0 0 0 0 0 0 0 0 0 0 0 0 0 0 0 0 0 0 0 0 0 0 0 0 0 0 0 0 0 0 0 0 0 0
1 0 0 0 0 0 0 0 0 0 0 0 0 0 0 0 0 0 0 0 0 0 0 0 0 0 0 0 0 0 0 0 0 0 0 0 0 0 0 0 0 0 0 0
0 0 0 0 0 0 0 0 0 0 0 0 0 0 0 0 0 0 0 0 0 0 0 0 0 0 0 0 0 0 0 0 0 0 0 0 0 0 0 0 0 0 0 0
0 0 0 0 0 0 0 0 0 0 0 0 0 0 0 0 0 0 0 0 0 0 0 0 0 0 0 0 0 0 0 0 0 0 0 0 0 0 0 0 0 0 0 0
0 0 0 0 0 0 0 0 0 0 0 0 0 0 0 0 0 0 0 0 0 0 0 0 0 0 0 0 0 0 0 0 0 0 0 0 0 0 0 0 0 0 0 0
0 0 0 0 0 0 0 0 0 0 0 0 0 0 0 0 0 0 0 0 0 0 0 0 0 0 0 0 0 0 0 0 0 0 0 0 0 0 0 0 0 0 0 0
0 0 0 0 0 0 0 0 0 0 0 0 0 0 0 0 0 0 0 0 0 0 0 0 0 0 0 0 0 0 0 0 0 0 0 0 0 0 0 0 0 0 0 0
0 0 0 0 0 0 0 0 0 0 0 0 0 0 0 0 0 0 0 0 0 0 0 0 0 0 0 0 0 0 0 0 0 0 0 0 0 0 0 0 0 0 0 0
0 0 0 0 0 0 0 0 0 0 0 0 0 0 0 0 0 0 0 0 0 0 0 0 0 0 0 0 0 0 0 0 0 0 0 0 0 0 0 0 0 0 0 0
0 0 0 0 0 0 0 0 0 0 0 0 0 0 0 0 0 0 0 0 0 0 0 0 0 0 0 0 0 0 0 0 0 0 0 0 0 0 0 0 0 0 0 0
0 0 0 0 0 0 0 0 0 0 0 0 0 0 0 0 0 0 0 0 0 0 0 0 0 0 0 0 0 0 0 0 0 0 0 0 0 0 0 0 0 0 0 0
0 0 0 0 0 0 0 0 0 0 0 0 0 0 0 0 0 0 0 0 0 0 0 0 0 0 0 0 0 0 0 0 0 0 0 0 0 0 0 0 0 0 0 0
Wind_Speed
9 11 17 21 21 13 11 13 14 11 7 10 17 19 18 15 14 16 16 16 16 17 16 13 11 10 10 10 11 12 12 11 10 8 8 8 9 9 9 10 11 12 12 12
9 18 19 15 16 14 13 14 14 8 6 9 14 20 19 18 19 18 19 18 18 17 15 13 12 10 10 11 11 11 12 12 12 10 9 8 8 8 9 8 10 12 12 12
19 9 13 15 16 18 19 18 16 10 3 7 10 17 19 17 17 18 19 19 19 18 17 15 12 11 10 11 11 10 12 12 12 12 9 7 7 6 7 9 9 12 13 13
17 13 12 16 19 19 19 16 14 12 9 8 8 14 15 15 16 17 18 18 19 18 17 15 13 12 10 10 9 10 11 11 11 11 11 12 10 10 11 9 8 10 12 13
13 13 16 17 18 18 11 8 12 13 13 13 13 13 14 10 16 18 18 18 18 16 15 14 12 10 9 8 8 8 9 10 10 11 12 13 12 10 8 8 9 9 9 11
11 7 12 15 13 14 8 6 6 9 9 16 20 18 17 13 17 15 15 14 14 12 11 11 10 8 8 6 6 7 8 8 8 10 11 13 13 12 10 9 8 8 7 8
13 12 8 7 11 13 12 9 7 9 11 14 13 16 17 10 13 15 14 12 11 9 8 8 7 7 6 6 5 6 7 8 7 8 10 11 13 12 12 10 9 8 7 7
13 14 16 13 15 14 19 17 12 11 11 10 11 17 12 6 10 11 11 9 8 7 6 6 6 6 6 5 5 5 6 6 6 7 8 8 9 8 7 9 8 8 6 7
12 11 9 15 13 15 16 18 16 9 6 8 11 13 12 6 8 10 11 10 9 8 7 6 6 6 5 5 5 5 5 5 5 6 6 7 7 7 7 7 7 6 6 5
7 7 7 8 8 15 15 12 9 12 11 15 14 18 14 10 13 12 11 10 8 7 6 6 5 4 4 4 4 4 4 4 4 4 4 4 5 6 6 5 6 6 6 6
9 8 6 9 15 17 15 17 13 10 10 12 15 14 8 11 12 12 12 10 8 8 7 5 4 3 3 2 2 2 3 3 3 3 3 3 3 3 4 4 4 5 5 5
11 8 9 12 10 12 17 19 19 14 13 12 14 16 3 7 8 8 9 7 6 6 5 5 4 3 2 2 2 2 1 2 2 2 2 2 2 2 2 2 2 2 3 3
9 8 8 8 8 9 14 17 19 18 13 13 16 15 5 6 7 7 7 6 6 5 5 4 4 3 3 2 1 1 1 1 1 1 1 2 2 2 2 2 1 1 2 2
7 7 11 14 9 8 13 17 19 19 15 17 22 23 15 12 10 9 9 8 7 6 6 5 5 4 3 2 2 1 1 1 1 1 1 1 1 1 1 1 1 1 1 1
6 9 10 13 12 11 14 17 19 21 22 20 21 25 24 19 16 14 12 9 9 9 9 8 7 5 4 3 3 2 1 0 0 0 0 0 0 0 0 0 0 0 0 0
6 7 7 11 13 13 15 19 21 23 23 25 25 27 24 19 15 14 13 12 12 13 12 10 8 7 6 5 4 3 2 1 1 1 1 0 1 1 1 1 1 1 1 1
7 6 7 11 9 9 16 21 24 23 22 21 25 28 22 20 17 16 15 14 15 14 13 11 10 8 7 6 5 5 3 2 2 2 1 1 1 1 2 2 1 1 1 1
9 8 6 6 6 16 13 11 19 22 24 23 22 22 21 20 18 14 13 14 14 13 12 10 9 8 6 5 5 4 3 3 2 2 1 1 1 1 2 2 2 2 1 1
14 11 7 7 12 15 13 9 11 16 20 20 22 23 21 17 13 13 12 12 13 12 10 8 8 7 5 5 5 4 4 3 3 2 1 1 1 2 2 2 1 1 1 1
12 12 9 9 12 14 12 6 7 10 18 15 17 20 18 13 14 14 9 8 7 7 5 5 5 5 5 5 5 5 5 4 3 2 2 1 1 1 1 1 1 1 1 1
7 9 13 14 14 13 8 3 7 10 11 6 9 12 12 14 13 8 4 3 3 3 3 3 4 4 4 4 5 5 5 4 3 2 1 1 1 1 1 1 1 1 1 1
9 8 10 10 13 14 4 7 10 8 3 3 5 7 8 8 5 4 3 2 3 3 3 3 4 3 3 4 5 5 4 2 2 3 2 1 1 1 1 1 1 1 1 1
10 9 7 9 9 3 4 7 5 3 5 5 5 5 5 4 5 4 3 3 3 3 3 3 4 4 3 2 3 4 2 2 3 3 2 2 1 1 1 1 1 1 1 0
7 4 7 9 11 8 7 6 6 5 6 5 4 4 4 5 5 4 3 3 3 3 3 3 4 4 3 2 3 2 2 3 3 3 2 2 2 1 1 1 0 0 0 0
7 5 7 11 10 8 9 9 7 6 5 4 3 4 5 5 5 5 4 4 4 3 3 3 3 3 3 3 3 2 2 3 3 3 2 1 1 1 1 1 1 1 1 1
9 10 11 12 8 7 8 5 6 7 7 5 4 4 4 5 5 4 4 3 4 4 4 3 3 3 3 3 2 2 1 2 2 2 2 1 1 1 0 0 1 2 2 3
Wind_Direction
190 202 209 208 211 228 221 220 225 228 205 214 234 244 247 244 244 248 250 250 250 250 254 252 245 237 232 229 226 224 222 220 214 210 210 213 219 220 221 223 223 221 221 219
198 222 220 214 213 220 223 229 233 235 217 231 252 255 254 249 247 247 250 250 250 252 251 248 245 237 231 230 228 227 225 221 215 213 211 215 219 220 222 221 222 222 221 221
213 221 208 207 211 218 225 228 229 227 226 239 267 263 249 244 242 245 246 248 250 250 252 250 243 240 235 234 231 227 226 224 220 216 214 214 220 225 221 221 221 220 221 221
227 224 203 206 214 214 230 228 233 234 235 243 234 268 252 239 237 236 240 242 245 247 248 249 247 244 240 239 237 233 230 226 223 215 213 211 213 220 224 222 221 222 220 222
217 208 209 215 217 213 228 212 222 232 239 251 236 255 261 228 239 239 238 240 244 246 246 246 247 248 248 244 237 234 232 228 223 216 215 215 222 228 232 226 225 225 221 222
227 216 218 224 220 215 205 193 221 233 236 245 237 239 261 228 235 239 237 238 240 240 239 242 247 248 250 249 240 236 232 231 227 220 217 217 221 225 228 228 226 224 223 222
221 224 219 207 200 201 198 193 208 213 218 239 223 229 252 237 230 233 234 233 235 234 236 242 247 248 250 253 248 240 236 235 228 222 220 221 224 225 226 228 228 226 223 223
211 219 207 203 206 201 203 205 213 223 229 234 212 232 249 234 234 236 240 242 243 244 241 241 247 251 251 249 248 243 239 242 236 225 223 225 227 228 230 230 229 227 228 229
211 226 197 205 206 203 205 215 226 247 262 256 233 242 254 237 238 235 237 238 238 236 237 242 248 253 254 251 248 246 242 241 241 233 226 224 221 224 228 229 229 231 231 231
217 228 210 199 202 215 218 207 205 218 232 242 243 241 241 214 217 221 226 228 230 233 235 243 250 254 255 259 261 255 247 242 243 239 232 231 227 224 226 225 224 226 230 230
215 223 215 196 205 206 203 210 214 220 227 236 249 247 236 227 217 218 219 223 228 229 234 243 249 250 252 256 261 256 249 248 250 243 231 218 223 224 224 224 227 228 229 228
209 218 231 227 227 234 221 218 214 220 225 232 249 255 222 221 217 220 226 230 235 237 241 246 248 245 244 248 261 264 265 258 259 254 238 223 217 212 208 215 227 232 234 232
188 205 217 221 221 216 224 226 227 232 239 237 243 252 227 228 231 231 236 239 238 243 251 254 254 254 258 260 257 263 274 284 287 251 222 222 220 212 211 218 226 226 229 238
209 218 225 232 231 206 219 226 225 226 234 240 242 253 247 242 246 244 243 245 245 245 249 251 255 257 256 251 245 245 266 302 307 268 223 217 229 221 215 214 210 212 226 232
213 230 238 253 257 239 233 233 232 231 235 241 248 252 255 254 254 253 251 249 245 248 248 243 241 242 243 242 240 234 237 268 233 193 164 258 285 244 148 99 73 71 55 7
212 230 231 248 250 250 250 242 238 237 239 243 251 257 258 260 256 252 246 242 243 245 246 245 238 232 231 230 233 231 224 207 186 171 161 100 67 60 56 60 61 57 51 38
212 209 229 251 248 251 245 236 233 235 236 239 245 251 256 257 252 249 247 243 243 245 246 242 237 232 226 223 220 225 221 192 177 174 149 117 99 82 60 50 55 55 44 36
222 215 226 245 223 238 245 242 233 239 242 240 244 253 256 257 259 253 244 244 247 246 243 238 235 233 221 209 208 208 192 182 180 185 173 151 136 107 77 67 55 40 27 18
220 214 219 227 243 257 260 238 222 231 246 242 244 250 254 257 261 257 246 239 240 240 237 234 228 225 214 203 194 182 182 181 177 187 195 188 161 138 125 109 78 40 20 6
218 214 218 225 237 244 254 237 221 227 250 248 242 247 250 245 252 256 246 232 233 234 231 224 215 205 202 199 179 177 185 184 189 196 197 192 177 165 160 134 101 61 38 7
193 209 219 229 241 252 256 208 170 214 249 262 245 246 246 242 249 262 252 225 213 214 215 201 187 191 198 185 176 183 188 194 189 162 148 148 158 145 120 87 64 62 51 29
210 214 217 221 236 247 201 183 206 238 264 259 252 246 245 252 263 260 247 205 187 181 173 171 174 176 172 172 176 179 186 175 142 133 130 122 106 99 98 95 78 57 50 35
224 223 224 221 238 270 194 220 245 253 244 247 249 247 232 236 242 246 238 204 184 171 161 159 154 149 141 146 165 173 161 131 132 128 129 120 94 76 84 110 101 76 71 43
239 233 238 251 252 251 247 254 257 252 252 261 261 245 227 229 228 230 211 188 165 148 146 144 143 142 137 116 109 118 118 128 130 133 134 126 117 91 53 43 70 174 225 291
236 213 233 253 264 274 254 246 251 255 256 255 252 240 228 217 215 208 197 184 167 151 143 144 151 146 134 110 96 85 97 124 131 131 126 119 106 92 64 25 341 299 309 300
223 223 233 249 242 244 261 253 239 242 244 236 230 234 220 205 202 189 183 175 162 150 142 142 140 135 127 113 94 60 54 106 132 135 130 130 132 137 151 104 7 1 321 332